Golden Triangle, MS

12:25 AM CDT on April 27, 2018 (GMT -0500)
Golden Triangle Regional

Weather History for KGTR - August, 2014

Change the Weather History Date:

Monday, August 18, 2014

  Actual Average Record
Temperature  
Mean Temperature 80 °F -  
Max Temperature 89 °F 89 °F 100 °F (1999)
Min Temperature 71 °F 67 °F 60 °F (2004)
Cooling Degree Days 15    
Growing Degree Days 30 (Base 50)    
Moisture  
Dew Point 69 °F    
Average Humidity 73    
Maximum Humidity 83    
Minimum Humidity 51    
Precipitation  
Precipitation 0.00 in - - ()
Sea Level Pressure  
Sea Level Pressure 29.94 in    
Wind  
Wind Speed 6 mph (SW)    
Max Wind Speed 14 mph    
Max Gust Speed 21 mph    
Visibility 10 miles    
Events      
Averages and records for this station are not official NWS values.
T = Trace of Precipitation, MM = Missing Value Source: NWS Daily Summary

Daily Weather History Graph

Daily Weather History Graph

Search for Another Location

Airport or City:

Astronomy

Aug. 18, 2014 Rise Set
Actual Time 6:18 AM CDT 7:36 PM CDT
Civil Twilight 5:52 AM CDT 8:02 PM CDT
Nautical Twilight 5:21 AM CDT 8:33 PM CDT
Astronomical Twilight 4:49 AM CDT 9:06 PM CDT
Moon 12:29 AM CDT (8/18) 2:35 PM CDT (8/18)
Length of Visible Light 14h 10m
Length of Day
13h 18m
Last Quarter, 38% of the Moon is Illuminated
Aug 18
Last Quarter
Aug 25
New
Sep 2
First Quarter
Sep 8
Full
Sep 15
Last Quarter

Hourly Weather History & Observations

Time (CDT) Temp. Heat Index Dew Point Humidity Pressure Visibility Wind Dir Wind Speed Gust Speed Precip Events Conditions
12:15 AM 77.0 °F - 69.8 °F 78% 29.94 in 10.0 mi SW 5.8 mph - N/A   Clear
12:35 AM 77.0 °F - 69.8 °F 78% 29.94 in 10.0 mi SW 8.1 mph - N/A   Clear
12:55 AM 77.0 °F - 69.8 °F 78% 29.94 in 10.0 mi SW 8.1 mph - N/A   Clear
1:15 AM 77.0 °F - 69.8 °F 78% 29.94 in 10.0 mi SW 8.1 mph - N/A   Clear
1:35 AM 75.2 °F - 69.8 °F 83% 29.94 in 10.0 mi WSW 6.9 mph - N/A   Clear
1:55 AM 75.2 °F - 69.8 °F 83% 29.93 in 10.0 mi SW 6.9 mph - N/A   Clear
2:15 AM 75.2 °F - 69.8 °F 83% 29.94 in 10.0 mi SW 6.9 mph - N/A   Clear
2:35 AM 75.2 °F - 69.8 °F 83% 29.94 in 10.0 mi SSW 6.9 mph - N/A   Clear
2:55 AM 75.2 °F - 69.8 °F 83% 29.95 in 10.0 mi SW 4.6 mph - N/A   Clear
3:15 AM 75.2 °F - 69.8 °F 83% 29.96 in 10.0 mi SW 6.9 mph - N/A   Clear
3:35 AM 75.2 °F - 68.0 °F 78% 29.96 in 10.0 mi WSW 3.5 mph - N/A   Clear
3:55 AM 75.2 °F - 68.0 °F 78% 29.97 in 10.0 mi Calm Calm - N/A   Clear
4:15 AM 73.4 °F - 66.2 °F 78% 29.97 in 10.0 mi Calm Calm - N/A   Clear
4:35 AM 71.6 °F - 66.2 °F 83% 29.96 in 10.0 mi SSW 4.6 mph - N/A   Clear
4:55 AM 73.4 °F - 66.2 °F 78% 29.96 in 10.0 mi SSW 4.6 mph - N/A   Clear
5:15 AM 71.6 °F - 66.2 °F 83% 29.96 in 10.0 mi SSW 4.6 mph - N/A   Clear
5:35 AM 71.6 °F - 66.2 °F 83% 29.97 in 10.0 mi Calm Calm - N/A   Clear
5:50 AM 73.4 °F - 66.2 °F 78% 29.97 in 10.0 mi Calm Calm - N/A   Clear
6:55 AM 71.6 °F - 66.2 °F 83% 29.97 in 10.0 mi Calm Calm - N/A   Clear
7:25 AM 75.2 °F - 69.8 °F 83% 29.98 in 10.0 mi SW 4.6 mph - N/A   Mostly Cloudy
7:50 AM 75.2 °F - 69.8 °F 83% 29.98 in 10.0 mi West 4.6 mph - N/A   Mostly Cloudy
8:55 AM 78.8 °F - 71.6 °F 78% 29.98 in 10.0 mi WSW 11.5 mph - N/A   Overcast
9:55 AM 82.4 °F 88.2 °F 73.4 °F 74% 29.99 in 10.0 mi WSW 6.9 mph - N/A   Mostly Cloudy
10:50 AM 84.2 °F 89.6 °F 71.6 °F 66% 29.99 in 10.0 mi WSW 9.2 mph - N/A   Mostly Cloudy
11:50 AM 84.2 °F 89.6 °F 71.6 °F 66% 29.97 in 10.0 mi WNW 9.2 mph 18.4 mph N/A   Mostly Cloudy
12:55 PM 87.8 °F 93.8 °F 71.6 °F 58% 29.94 in 10.0 mi WNW 6.9 mph - N/A   Mostly Cloudy
1:50 PM 89.6 °F 96.2 °F 71.6 °F 55% 29.90 in 10.0 mi West 13.8 mph - N/A   Scattered Clouds
2:50 PM 89.6 °F 94.7 °F 69.8 °F 52% 29.90 in 10.0 mi West 13.8 mph - N/A   Scattered Clouds
3:45 PM 87.8 °F 91.4 °F 68.0 °F 52% 29.89 in 10.0 mi WSW 11.5 mph 17.3 mph N/A   Scattered Clouds
5:45 PM 86.0 °F 88.2 °F 66.2 °F 51% 29.88 in 10.0 mi West 11.5 mph 20.7 mph N/A   Mostly Cloudy
6:45 PM 84.2 °F 87.3 °F 68.0 °F 58% 29.89 in 10.0 mi West 6.9 mph - N/A   Scattered Clouds
7:45 PM 82.4 °F 84.6 °F 66.2 °F 58% 29.91 in 10.0 mi West 3.5 mph - N/A   Clear
8:15 PM 78.8 °F - 68.0 °F 69% 29.91 in 10.0 mi WSW 3.5 mph - N/A   Clear
8:35 PM 78.8 °F - 66.2 °F 65% 29.91 in 10.0 mi Calm Calm - N/A   Clear
8:55 PM 78.8 °F - 68.0 °F 69% 29.91 in 10.0 mi Calm Calm - N/A   Clear
9:15 PM 77.0 °F - 66.2 °F 69% 29.92 in 10.0 mi Calm Calm - N/A   Partly Cloudy
9:35 PM 78.8 °F - 68.0 °F 69% 29.92 in 10.0 mi South 3.5 mph - N/A   Mostly Cloudy
9:55 PM 77.0 °F - 68.0 °F 74% 29.92 in 10.0 mi South 4.6 mph - N/A   Overcast
10:15 PM 78.8 °F - 68.0 °F 69% 29.93 in 10.0 mi Calm Calm - N/A   Overcast
10:35 PM 77.0 °F - 68.0 °F 74% 29.92 in 10.0 mi South 6.9 mph - N/A   Mostly Cloudy
11:15 PM 75.2 °F - 68.0 °F 78% 29.92 in 10.0 mi South 4.6 mph - N/A   Mostly Cloudy
11:35 PM 78.8 °F - 69.8 °F 74% 29.91 in 10.0 mi South 4.6 mph - N/A   Mostly Cloudy
11:55 PM 75.2 °F - 69.8 °F 83% 29.90 in 10.0 mi SSW 4.6 mph - N/A   Partly Cloudy